This demonstration page uses our WeatherBlox Daily Observations layout. Learn more.

Left ArrowRight Arrow

Hourly Observations for August 13, 2022

Temp ( °F °C ) Dew Point ( °F °C ) Humidity (%) Winds ( mph kmh ) Pressure ( in mb ) Visibility ( mi km ) Precip ( " mm )
12:56 am 00:56 Clear 77 25 54 12.2 45 45 S 17 28 29.95 1014 10 16 0.00 0.00
1:56 am 01:56 Mostly Clear 75 23.9 53 11.7 46 46 SSW 16 26 29.95 1014 10 16 0.00 0.00
2:56 am 02:56 Clear 72 22.2 54 12.2 53 53 SSW 10 17 29.96 1014 10 16 0.00 0.00
3:56 am 03:56 Mostly Clear 71 21.7 55 12.8 57 57 SSW 7 11 29.97 1015 10 16 0.00 0.00
4:56 am 04:56 Partly Cloudy 69 20.6 56 13.3 63 63 SW 5 7 29.98 1015 10 16 0.00 0.00
5:56 am 05:56 Mostly Cloudy 66 18.9 58 14.4 75 75 Calm 30.00 1016 10 16 0.00 0.00
6:56 am 06:56 Mostly Cloudy 67 19.4 59 15 76 76 S 3 6 30.00 1016 10 16 0.00 0.00
7:56 am 07:56 Sunny 70 21.1 60 15.6 71 71 SSW 9 15 29.99 1016 10 16 0.00 0.00
8:56 am 08:56 Sunny 74 23.3 59 15 60 60 WNW 10 17 30.01 1016 10 16 0.00 0.00
9:56 am 09:56 Sunny 79 26.1 58 14.4 49 49 WNW 6 9 30.00 1016 10 16 0.00 0.00
10:56 am 10:56 Sunny 82 27.8 64 17.8 55 55 VRB 5 7 30.00 1016 10 16 0.00 0.00
11:56 am 11:56 Sunny 85 29.4 66 18.9 53 53 NE 10 17 30.01 1016 10 16 0.00 0.00
12:56 pm 12:56 Sunny 87 30.6 69 20.6 55 55 NE 10 17 30.00 1016 10 16 0.00 0.00
1:56 pm 13:56 Sunny 88 31.1 71 21.7 57 57 E 10 17 29.99 1016 10 16 0.00 0.00
2:56 pm 14:56 Sunny 89 31.7 71 21.7 56 56 ENE 12 19 29.98 1015 10 16 0.00 0.00
3:56 pm 15:56 Sunny 89 31.7 69 20.6 52 52 E 9 15 29.97 1015 10 16 0.00 0.00
4:56 pm 16:56 Sunny 89 31.7 71 21.7 56 56 NNE 10 17 29.98 1015 10 16 0.00 0.00
5:56 pm 17:56 Sunny 88 31.1 71 21.7 57 57 ENE 13 20 29.97 1015 10 16 0.00 0.00
6:56 pm 18:56 Sunny 85 29.4 71 21.7 63 63 ENE 15 24 29.97 1015 10 16 0.00 0.00
7:56 pm 19:56 Sunny 81 27.2 71 21.7 72 72 ENE 13 20 29.96 1015 10 16 0.00 0.00
8:56 pm 20:56 Clear 76 24.4 70 21.1 82 82 ENE 12 19 29.98 1015 10 16 0.00 0.00
9:56 pm 21:56 Clear 73 22.8 69 20.6 87 87 ENE 9 15 29.99 1016 10 16 0.00 0.00
10:56 pm 22:56 Clear 70 21.1 67 19.4 90 90 ENE 6 9 30.00 1016 10 16 0.00 0.00
11:56 pm 23:56 Clear 69 20.6 67 19.4 93 93 ENE 8 13 30.00 1016 10 16 0.00 0.00

Powered by AerisWeather